Colby, KS

5:50 AM CDT on September 21, 2017 (GMT -0500)
Shaltz

Weather History for KCBK - August, 2013

Change the Weather History Date:

Friday, August 2, 2013

  Actual Average (KGLD) Record (KGLD)
Temperature  
Mean Temperature 76 °F -  
Max Temperature 89 °F 87 °F 108 °F (1938)
Min Temperature 62 °F 61 °F 50 °F (1927)
Cooling Degree Days 10    
Growing Degree Days 26 (Base 50)    
Moisture  
Dew Point 67 °F    
Average Humidity 77    
Maximum Humidity 100    
Minimum Humidity 46    
Precipitation  
Precipitation 0.00 in - - ()
Sea Level Pressure  
Sea Level Pressure 29.95 in    
Wind  
Wind Speed 13 mph (ESE)    
Max Wind Speed 22 mph    
Max Gust Speed 30 mph    
Visibility 10 miles    
Events      
Averages and records for this station are not official NWS values.
T = Trace of Precipitation, MM = Missing Value Source: NWS Daily Summary

Daily Weather History Graph

Daily Weather History Graph

Search for Another Location

Airport or City:

Trip Planner

Search our weather history database for the weather conditions in past years. The results will help you decide how hot, cold, wet, or windy it might be!

Date:

Astronomy

Aug. 02, 2013 Rise Set
Actual Time 6:45 AM CDT 8:55 PM CDT
Civil Twilight 6:15 AM CDT 9:24 PM CDT
Nautical Twilight 5:38 AM CDT 10:01 PM CDT
Astronomical Twilight 4:58 AM CDT 10:41 PM CDT
Moon 3:07 AM CDT (8/2) 5:54 PM CDT (8/2)
Length of Visible Light 15h 09m
Length of Day
14h 10m
Waning Crescent, 15% of the Moon is Illuminated
Aug 2
Waning Crescent
Aug 6
New
Aug 14
First Quarter
Aug 20
Full
Aug 28
Last Quarter

Hourly Weather History & Observations

Time (CDT) Temp. Heat Index Dew Point Humidity Pressure Visibility Wind Dir Wind Speed Gust Speed Precip Events Conditions
12:15 AM 71.6 °F - 68.0 °F 88% 29.95 in 10.0 mi South 18.4 mph 27.6 mph N/A   Clear
12:35 AM 71.6 °F - 68.0 °F 88% 29.95 in 10.0 mi South 15.0 mph 20.7 mph N/A   Clear
12:55 AM 71.6 °F - 68.0 °F 88% 29.94 in 10.0 mi South 13.8 mph 23.0 mph N/A   Clear
1:15 AM 71.6 °F - 68.0 °F 88% 29.95 in 10.0 mi South 11.5 mph 16.1 mph N/A   Clear
1:35 AM 71.6 °F - 66.2 °F 83% 29.95 in 10.0 mi South 10.4 mph 18.4 mph N/A   Clear
1:55 AM 71.6 °F - 66.2 °F 83% 29.93 in 10.0 mi South 10.4 mph - N/A   Clear
2:15 AM 71.6 °F - 66.2 °F 83% 29.93 in 10.0 mi South 9.2 mph - N/A   Clear
2:35 AM 69.8 °F - 66.2 °F 88% 29.96 in 10.0 mi NE 9.2 mph - N/A   Clear
2:55 AM 71.6 °F - 66.2 °F 83% 29.95 in 10.0 mi ENE 12.7 mph - N/A   Clear
3:35 AM 69.8 °F - 66.2 °F 88% 29.97 in 10.0 mi ESE 16.1 mph - N/A   Scattered Clouds
3:55 AM 68.0 °F - 64.4 °F 88% 29.96 in 10.0 mi East 16.1 mph 24.2 mph N/A   Mostly Cloudy
4:15 AM 66.2 °F - 64.4 °F 94% 29.96 in 10.0 mi East 16.1 mph 23.0 mph N/A   Mostly Cloudy
4:35 AM 64.4 °F - 64.4 °F 100% 29.96 in 10.0 mi ESE 18.4 mph 28.8 mph N/A   Mostly Cloudy
4:55 AM 64.4 °F - 64.4 °F 100% 29.95 in 10.0 mi ESE 21.9 mph 26.5 mph N/A   Mostly Cloudy
5:15 AM 62.6 °F - 62.6 °F 100% 29.95 in 10.0 mi ESE 17.3 mph 29.9 mph N/A   Scattered Clouds
5:35 AM 62.6 °F - 62.6 °F 100% 29.95 in 10.0 mi ESE 18.4 mph 25.3 mph N/A   Clear
5:55 AM 62.6 °F - 62.6 °F 100% 29.94 in 10.0 mi SE 20.7 mph 25.3 mph N/A   Clear
6:15 AM 62.6 °F - 62.6 °F 100% 29.93 in 10.0 mi SE 17.3 mph 26.5 mph N/A   Clear
6:35 AM 62.6 °F - 62.6 °F 100% 29.93 in 10.0 mi SE 16.1 mph 20.7 mph N/A   Clear
6:55 AM 62.6 °F - 62.6 °F 100% 29.93 in 10.0 mi SE 15.0 mph - N/A   Clear
7:15 AM 62.6 °F - 62.6 °F 100% 29.93 in 10.0 mi SE 19.6 mph 25.3 mph N/A   Clear
7:35 AM 64.4 °F - 62.6 °F 94% 29.93 in 10.0 mi ESE 15.0 mph 21.9 mph N/A   Scattered Clouds
7:55 AM 64.4 °F - 62.6 °F 94% 29.94 in 10.0 mi SE 16.1 mph - N/A   Scattered Clouds
8:15 AM 64.4 °F - 62.6 °F 94% 29.94 in 10.0 mi SE 16.1 mph - N/A   Clear
8:35 AM 64.4 °F - 62.6 °F 94% 29.93 in 10.0 mi SE 13.8 mph - N/A   Clear
8:55 AM 66.2 °F - 62.6 °F 88% 29.94 in 10.0 mi SE 12.7 mph - N/A   Clear
9:15 AM 68.0 °F - 62.6 °F 83% 29.95 in 10.0 mi SE 10.4 mph - N/A   Clear
9:35 AM 68.0 °F - 64.4 °F 88% 29.94 in 10.0 mi SE 15.0 mph - N/A   Clear
9:55 AM 69.8 °F - 64.4 °F 83% 29.93 in 10.0 mi SE 10.4 mph - N/A   Clear
10:15 AM 73.4 °F - 64.4 °F 73% 29.94 in 10.0 mi SSE 9.2 mph - N/A   Clear
10:35 AM 73.4 °F - 66.2 °F 78% 29.93 in 10.0 mi SSE 9.2 mph - N/A   Clear
10:55 AM 75.2 °F - 66.2 °F 73% 29.93 in 10.0 mi South 6.9 mph - N/A   Clear
11:15 AM 77.0 °F - 68.0 °F 74% 29.93 in 10.0 mi South 6.9 mph - N/A   Clear
11:35 AM 77.0 °F - 68.0 °F 74% 29.95 in 10.0 mi Calm Calm - N/A   Clear
11:55 AM 78.8 °F - 68.0 °F 69% 29.93 in 10.0 mi SSE 4.6 mph - N/A   Clear
12:15 PM 78.8 °F - 68.0 °F 69% 29.93 in 10.0 mi SSE 3.5 mph - N/A   Clear
12:35 PM 80.6 °F 83.2 °F 68.0 °F 65% 29.93 in 10.0 mi Calm Calm - N/A   Clear
12:55 PM 82.4 °F 85.4 °F 68.0 °F 62% 29.93 in 10.0 mi ENE 4.6 mph - N/A   Clear
1:15 PM 82.4 °F 85.4 °F 68.0 °F 62% 29.93 in 10.0 mi NNE 3.5 mph - N/A   Clear
1:35 PM 84.2 °F 87.3 °F 68.0 °F 58% 29.93 in 10.0 mi East 4.6 mph - N/A   Clear
1:55 PM 86.0 °F 89.4 °F 68.0 °F 55% 29.93 in 10.0 mi NE 5.8 mph - N/A   Clear
2:15 PM 86.0 °F 89.4 °F 68.0 °F 55% 29.93 in 10.0 mi East 6.9 mph - N/A   Clear
2:35 PM 87.8 °F 91.4 °F 68.0 °F 52% 29.93 in 10.0 mi ENE 9.2 mph - N/A   Clear
2:55 PM 87.8 °F 92.6 °F 69.8 °F 55% 29.94 in 10.0 mi ENE 8.1 mph - N/A   Clear
3:15 PM 87.8 °F 92.6 °F 69.8 °F 55% 29.94 in 10.0 mi NE 8.1 mph - N/A   Clear
3:35 PM 89.6 °F 94.7 °F 69.8 °F 52% 29.94 in 10.0 mi East 10.4 mph 17.3 mph N/A   Clear
3:55 PM 87.8 °F 92.6 °F 69.8 °F 55% 29.94 in 10.0 mi ENE 13.8 mph 19.6 mph N/A   Clear
4:15 PM 89.6 °F 94.7 °F 69.8 °F 52% 29.94 in 10.0 mi ENE 13.8 mph 20.7 mph N/A   Clear
4:35 PM 87.8 °F 92.6 °F 69.8 °F 55% 29.93 in 10.0 mi ENE 11.5 mph 18.4 mph N/A   Clear
4:55 PM 89.6 °F 93.4 °F 68.0 °F 49% 29.94 in 10.0 mi ENE 13.8 mph 19.6 mph N/A   Clear
5:15 PM 89.6 °F 93.4 °F 68.0 °F 49% 29.94 in 10.0 mi ENE 11.5 mph - N/A   Clear
5:35 PM 89.6 °F 92.2 °F 66.2 °F 46% 29.94 in 10.0 mi NE 12.7 mph 18.4 mph N/A   Clear
5:55 PM 89.6 °F 94.7 °F 69.8 °F 52% 29.95 in 10.0 mi East 11.5 mph - N/A   Clear
6:15 PM 87.8 °F 92.6 °F 69.8 °F 55% 29.94 in 10.0 mi East 17.3 mph - N/A   Clear
6:35 PM 87.8 °F 91.4 °F 68.0 °F 52% 29.94 in 10.0 mi East 15.0 mph - N/A   Clear
6:55 PM 87.8 °F 91.4 °F 68.0 °F 52% 29.95 in 10.0 mi East 15.0 mph 18.4 mph N/A   Clear
7:15 PM 86.0 °F 90.4 °F 69.8 °F 58% 29.95 in 10.0 mi East 10.4 mph - N/A   Clear
7:35 PM 86.0 °F 90.4 °F 69.8 °F 58% 29.96 in 10.0 mi East 15.0 mph - N/A   Clear
7:55 PM 84.2 °F 88.4 °F 69.8 °F 62% 29.96 in 10.0 mi East 12.7 mph - N/A   Clear
8:15 PM 82.4 °F 86.3 °F 69.8 °F 66% 29.97 in 10.0 mi East 11.5 mph - N/A   Clear
8:35 PM 80.6 °F 83.9 °F 69.8 °F 70% 29.97 in 10.0 mi East 10.4 mph - N/A   Clear
8:55 PM 78.8 °F - 69.8 °F 74% 29.98 in 10.0 mi East 8.1 mph - N/A   Clear
9:15 PM 78.8 °F - 69.8 °F 74% 29.99 in 10.0 mi East 10.4 mph - N/A   Clear
9:35 PM 77.0 °F - 69.8 °F 78% 29.99 in 10.0 mi East 9.2 mph - N/A   Clear
9:55 PM 77.0 °F - 71.6 °F 83% 30.00 in 10.0 mi East 10.4 mph - N/A   Clear
10:15 PM 75.2 °F - 71.6 °F 89% 30.01 in 10.0 mi East 9.2 mph - N/A   Clear
10:35 PM 73.4 °F - 71.6 °F 94% 30.01 in 10.0 mi East 11.5 mph 16.1 mph N/A   Clear
10:55 PM 73.4 °F - 71.6 °F 94% 30.02 in 10.0 mi East 8.1 mph - N/A   Clear
11:15 PM 71.6 °F - 71.6 °F 100% 30.03 in 10.0 mi East 10.4 mph - N/A   Clear
11:35 PM 71.6 °F - 71.6 °F 100% 30.03 in 10.0 mi East 12.7 mph - N/A   Clear
11:55 PM 71.6 °F - 71.6 °F 100% 30.03 in 10.0 mi East 11.5 mph - N/A   Clear